Regional Weather Roundup
Issued by NWS Sterling, VA

Home | Current Version | Previous Version | Graphics & Text | Print | Product List | Glossary On
Versions: 1 2 3 4 5 6 7 8 9 10 11 12 13 14 15 16 17 18 19 20 21 22 23 24 25 26 27
000
ASUS41 KLWX 171311
RWRLWX

REGIONAL WEATHER ROUNDUP
NATIONAL WEATHER SERVICE BALTIMORE MD/WASHINGTON DC
900 AM EDT TUE OCT 17 2017

Note: "FAIR" indicates few or no clouds below 12,000 feet
with no significant weather and/or obstructions to visibility.
 TC=TEMPERATURE CELSIUS

 * =Non NWS site. Station does not report precipitation (e.g. rain,
    snow, etc.), thunder, or fog.

DCZ001-MDZ009-015-VAZ040>042-051-053>054-171400-
WASHINGTON METRO

CITY           SKY/WX    TMP DP  RH WIND       PRES   REMARKS
WASHINGTON NAT SUNNY     50  36  58 NE9       30.40R
DULLES         SUNNY     45  39  79 NW5       30.39R
QUANTICO       MOSUNNY   50  38  63 N7        30.40R
COLLEGE PARK*  SUNNY     44  38  80 CALM      30.39R
LEESBURG*      SUNNY     46  39  76 NW3       30.40R
MANASSAS*      SUNNY     42  39  89 CALM      30.40R
GAITHERSBURG*  SUNNY     44  36  73 CALM      30.39R

$$

MDZ006>007-011-014-171400-
BALTIMORE METRO

CITY           SKY/WX    TMP DP  RH WIND       PRES   REMARKS
BWI AIRPORT    MOSUNNY   48  37  65 VRB3      30.38R
MD SCIENCE CTR   N/A     49  35  58 MISG      30.39R
MARTIN STATE   MOSUNNY   46  41  81 NW5       30.40R
ANNAPOLIS      SUNNY     51  41  68 N9        30.38R
FORT MEADE*    SUNNY     39  37  93 CALM      30.41R

$$

MDZ012-015-019>023-171400-
MARYLAND EASTERN SHORE

CITY           SKY/WX    TMP DP  RH WIND       PRES   REMARKS
OCEAN CITY     MOSUNNY   47  41  80 NW8       30.33R
SALISBURY      SUNNY     47  37  68 N8        30.34R
CAMBRIDGE*     SUNNY     46  36  66 N9        30.36R
EASTON*        SUNNY     46  36  66 N9        30.40R

$$

MDZ017>025-171400-
SOUTHERN MARYLAND

CITY           SKY/WX    TMP DP  RH WIND       PRES   REMARKS
PATUXENT RIVER MOSUNNY   52  39  61 NE13      30.36R
ST INIGOES     SUNNY     52  39  61 NE9       30.35R
LEONARDTOWN*   NOT AVBL

$$

MDZ003>005-171400-
NORTH CENTRAL MARYLAND

CITY           SKY/WX    TMP DP  RH WIND       PRES   REMARKS
FREDERICK*     SUNNY     43  41  93 CALM      30.42R
HAGERSTOWN APT SUNNY     44  36  73 CALM      30.38R
WESTMINSTER*   SUNNY     43  36  75 CALM      30.36R

$$

MDZ501>502-171400-
WESTERN MARYLAND

CITY           SKY/WX    TMP DP  RH WIND       PRES   REMARKS
OAKLAND*       SUNNY     37  30  75 CALM      30.31R
CUMBERLAND*    PTSUNNY   37  37 100 CALM      30.44R VSB 1

$$

VAZ025>031-171400-
SHENANDOAH VALLEY

CITY           SKY/WX    TMP DP  RH WIND       PRES   REMARKS
WINCHESTER*    SUNNY     43  37  81 NW3       30.38R
FRONT ROYAL*   SUNNY     43  39  87 MISG      30.38R
LURAY*         SUNNY     39  39 100 CALM      30.40R
NEW MARKET*    SUNNY     39  36  89 CALM      30.39R
STAUNTON*      SUNNY     37  36  95 CALM      30.41R
WAYNESBORO*    SUNNY     40  39  94 CALM      30.38R

$$

WVZ021-048>050-054>055-171400-
EASTERN WEST VIRGINIA PANHANDLE

CITY           SKY/WX    TMP DP  RH WIND       PRES   REMARKS
MARTINSBURG    SUNNY     42  36  79 CALM      30.38R
PETERSBURG*    FOG       35  34  99 CALM      30.41R VSB 1/2

$$

VAZ036>039-050-171400-
CENTRAL FOOTHILLS

CITY           SKY/WX    TMP DP  RH WIND       PRES   REMARKS
CHARLOTTESVILL SUNNY     47  41  80 CALM      30.38R
CULPEPER*      SUNNY     46  37  70 CALM      30.40R
ORANGE*        SUNNY     46  37  71 CALM      30.39R
GORDONSVILLE*  SUNNY     47  40  78 CALM      30.38R
WARRENTON*     SUNNY     46  38  73 CALM      30.39R

$$

VAZ055>057-171400-
NORTH AND CENTRAL PIEDMONT

CITY           SKY/WX    TMP DP  RH WIND       PRES   REMARKS
FREDERICKSBRG* SUNNY     47  38  71 N6        30.38R
STAFFORD*      SUNNY     46  40  80 N5        30.43R

$$

NCZ024-NYZ072-PAZ021-071-VAZ022-071-171400-
OTHER REGIONAL OBSERVATIONS

CITY           SKY/WX    TMP DP  RH WIND       PRES   REMARKS
NEW YORK CITY  SUNNY     45  35  68 VRB3      30.37R
PHILADELPHIA   SUNNY     46  33  60 N8        30.37R
ROANOKE        SUNNY     45  41  86 CALM      30.41R
RICHMOND       MOSUNNY   50  40  68 N10       30.36R
RALEIGH        MOSUNNY   49  40  71 NE6       30.35R

$$

ANZ530>537-171400-
MARINE OBSERVATIONS

STATION/POSITION TIME  TEMP    WIND        PRES
                       AIR SEA DIR/SP/G
                 (UTC) (F)     (DEG/KT/KT) (MB)
THOMAS PT LIGHT  1200   50 68   10/ 15/ 19   N/A
BALT KEY BRIDGE  1242   47     360/  8/ 11 1028.8R
COVE POINT       1242   50      50/ 15/ 21 1028.5R
LEWISETTA        1242   52 63   40/ 10/ 17 1027.8R
SOLOMONS ISLAND  1242   51 70   20/  9/ 11 1027.6R
PINEY POINT      1248           40/  7/  9   N/A

$$





USA.gov is the U.S. government's official web portal to all federal, state and local government web resources and services.